GW2385 Weather Reports


time (UTC)temp
F
wind
direction
speed
knots
gust
knots
rain 1hr
in
rain 24hr
in
rain mn
in
humidity
%
barometer
mb
20260503210543 81 188 0.9 0.9 0.00 0.00 0.00 43 1009.7
20260503210038 81 155 0.9 0.9 0.00 0.00 0.00 46 1009.8
20260503205535 80 177 0.9 0.9 0.00 0.00 0.00 47 1009.9
20260503205032 81 77 0.9 0.9 0.00 0.00 0.00 45 1010.3
20260503204529 79 130 0.9 0.9 0.00 0.00 0.00 47 1009.9
20260503204026 80 183 0.0 0.0 0.00 0.00 0.00 46 1010.2
20260503203523 79 198 0.9 0.9 0.00 0.00 0.00 47 1010.2
20260503203020 79 289 0.9 0.9 0.00 0.00 0.00 47 1010.4
20260503202518 78 69 0.9 1.7 0.00 0.00 0.00 47 1010.5
20260503202015 78 41 1.7 1.7 0.00 0.00 0.00 47 1010.5
20260503201514 78 59 0.9 1.7 0.00 0.00 0.00 47 1010.3
20260503201010 79 41 1.7 2.6 0.00 0.00 0.00 46 1010.4
20260503200506 79 100 0.9 1.7 0.00 0.00 0.00 46 1010.5
20260503200003 78 52 0.9 1.7 0.00 0.00 0.00 47 1010.6
20260503195500 78 87 0.9 0.9 0.00 0.00 0.00 48 1010.6
20260503194957 78 28 3.5 4.3 0.00 0.00 0.00 49 1010.7
20260503194455 79 160 1.7 2.6 0.00 0.00 0.00 49 1010.9
20260503193949 78 20 1.7 1.7 0.00 0.00 0.00 47 1010.7
20260503193445 78 198 0.9 0.9 0.00 0.00 0.00 50 1010.9
20260503192941 78 155 0.9 1.7 0.00 0.00 0.00 48 1010.9
20260503192438 77 4 0.9 1.7 0.00 0.00 0.00 49 1011.1
20260503191933 77 161 0.9 0.9 0.00 0.00 0.00 50 1011.0
20260503191431 77 120 0.0 0.9 0.00 0.00 0.00 51 1011.2
20260503190927 77 175 2.6 4.3 0.00 0.00 0.00 49 1011.3
20260503190425 77 142 0.0 0.0 0.00 0.00 0.00 51 1011.0
20260503185921 75 239 0.9 1.7 0.00 0.00 0.00 53 1011.4
20260503185418 75 151 0.9 0.9 0.00 0.00 0.00 54 1011.2
20260503184917 76 25 1.7 1.7 0.00 0.00 0.00 51 1011.5
20260503184414 77 5 1.7 1.7 0.00 0.00 0.00 51 1011.4
20260503183910 75 30 0.9 1.7 0.00 0.00 0.00 52 1011.4
20260503183407 75 139 0.0 0.0 0.00 0.00 0.00 53 1011.6
20260503182904 74 130 0.0 0.0 0.00 0.00 0.00 56 1011.5
20260503182403 73 126 0.9 0.9 0.00 0.00 0.00 56 1011.7
20260503181900 72 234 1.7 1.7 0.00 0.00 0.00 57 1011.8
20260503181356 73 196 0.0 0.9 0.00 0.00 0.00 57 1011.8
20260503180853 74 157 0.0 0.9 0.00 0.00 0.00 55 1011.9
20260503180351 72 154 0.9 0.9 0.00 0.00 0.00 57 1011.9
20260503175847 73 149 0.0 0.9 0.00 0.00 0.00 55 1011.9
20260503175345 73 154 0.0 0.0 0.00 0.00 0.00 56 1011.9
20260503174841 72 196 0.0 0.9 0.00 0.00 0.00 56 1011.9
20260503174339 71 183 0.9 1.7 0.00 0.00 0.00 61 1011.7
20260503173834 71 161 0.0 0.9 0.00 0.00 0.00 62 1011.8
20260503173331 70 93 0.9 0.9 0.00 0.00 0.00 63 1011.9
20260503172827 70 125 0.0 0.0 0.00 0.00 0.00 62 1012.1
20260503172325 70 225 0.9 1.7 0.00 0.00 0.00 62 1012.0
20260503171821 69 149 0.9 0.9 0.00 0.00 0.00 62 1011.9
20260503171318 68 150 0.0 0.9 0.00 0.00 0.00 65 1012.2
20260503170815 69 30 2.6 4.3 0.00 0.00 0.00 64 1012.0
20260503170312 68 110 0.0 0.9 0.00 0.00 0.00 66 1012.1
20260503150704 57 155 0.0 0.0 0.00 0.00 0.00 91 1012.3
20260503150200 56 153 0.0 0.0 0.00 0.00 0.00 92 1012.4
20260503140124 51 183 0.9 0.9 0.00 0.00 0.00 96 1012.3
20260503131054 50 168 0.0 0.0 0.00 0.00 0.00 96 1012.2
20260503130551 50 157 0.0 0.0 0.00 0.00 0.00 96 1012.3
20260503110442 52 152 0.9 0.9 0.00 0.00 0.00 94 1012.5
20260503090333 54 166 0.9 0.9 0.00 0.00 0.00 89 1012.5
20260503081300 55 174 0.0 0.9 0.00 0.00 0.00 87 1012.6
20260503080756 55 174 0.9 0.9 0.00 0.00 0.00 88 1012.7
20260503080254 55 171 1.7 1.7 0.00 0.00 0.00 88 1012.5
20260503072730 56 176 1.7 1.7 0.00 0.00 0.00 85 1012.6
20260503072227 56 181 1.7 1.7 0.00 0.00 0.00 85 1012.6
20260503071723 56 159 0.9 0.9 0.00 0.00 0.00 85 1012.5
20260503071220 56 179 2.6 2.6 0.00 0.00 0.00 85 1012.4
20260503070717 56 165 0.9 1.7 0.00 0.00 0.00 84 1012.6
20260503070215 57 183 1.7 1.7 0.00 0.00 0.00 83 1012.5
20260503060139 59 172 1.7 1.7 0.00 0.00 0.00 79 1012.4
20260503054626 58 185 1.7 1.7 0.00 0.00 0.00 79 1012.3
20260503054123 59 178 2.6 2.6 0.00 0.00 0.00 77 1012.3
20260503053622 59 168 1.7 1.7 0.00 0.00 0.00 77 1012.5
20260503053120 58 167 2.6 2.6 0.00 0.00 0.00 78 1012.5
20260503052616 58 166 1.7 1.7 0.00 0.00 0.00 79 1012.4
20260503052112 59 173 1.7 1.7 0.00 0.00 0.00 78 1012.3
20260503051608 59 171 1.7 1.7 0.00 0.00 0.00 78 1012.2
20260503051106 59 151 0.9 0.9 0.00 0.00 0.00 77 1012.4
20260503050602 59 177 2.6 2.6 0.00 0.00 0.00 77 1012.3
20260503050059 59 164 1.7 1.7 0.00 0.00 0.00 78 1012.3
20260503045556 59 154 1.7 1.7 0.00 0.00 0.00 77 1012.3
20260503045053 60 142 1.7 1.7 0.00 0.00 0.00 74 1012.2
20260503044550 59 191 0.9 1.7 0.00 0.00 0.00 78 1012.3
20260503044047 59 177 0.9 0.9 0.00 0.00 0.00 77 1012.0
20260503043543 59 165 0.9 0.9 0.00 0.00 0.00 78 1012.1
20260503043040 59 175 0.0 0.9 0.00 0.00 0.00 78 1012.1
20260503042537 59 163 0.9 0.9 0.00 0.00 0.00 78 1012.0
20260503042033 60 166 1.7 1.7 0.00 0.00 0.00 78 1011.9
20260503041530 60 152 0.9 1.7 0.00 0.00 0.00 77 1011.9
20260503041028 60 148 0.9 0.9 0.00 0.00 0.00 75 1011.8
20260503040525 60 175 1.7 1.7 0.00 0.00 0.00 77 1011.8
20260503040022 60 163 0.9 1.7 0.00 0.00 0.00 76 1011.5
20260503035519 61 161 0.9 1.7 0.00 0.00 0.00 76 1011.8
20260503035017 61 141 0.9 1.7 0.00 0.00 0.00 75 1011.7
20260503034514 61 166 1.7 1.7 0.00 0.00 0.00 75 1011.5
20260503034011 62 156 0.9 0.9 0.00 0.00 0.00 74 1011.2
20260503033508 62 159 0.9 1.7 0.00 0.00 0.00 73 1011.3
20260503033006 63 159 0.9 0.9 0.00 0.00 0.00 73 1011.4
20260503032504 63 164 0.9 0.9 0.00 0.00 0.00 71 1011.3
20260503032002 64 160 0.0 0.9 0.00 0.00 0.00 70 1011.4
20260503031459 65 175 0.9 0.9 0.00 0.00 0.00 68 1010.9
20260503030956 66 156 0.0 0.9 0.00 0.00 0.00 67 1010.9
20260503030452 67 138 0.0 0.9 0.00 0.00 0.00 63 1011.0
20260503025949 67 138 0.0 0.0 0.00 0.00 0.00 60 1011.1
20260503025446 66 207 0.0 0.9 0.00 0.00 0.00 65 1010.8
20260503024943 67 158 0.0 0.0 0.00 0.00 0.00 65 1010.8
20260503024440 67 180 0.9 0.9 0.00 0.00 0.00 65 1010.8
20260503023937 68 147 0.9 0.9 0.00 0.00 0.00 64 1010.8
20260503023434 70 163 0.0 0.0 0.00 0.00 0.00 60 1010.8
20260503022931 70 174 0.0 0.0 0.00 0.00 0.00 58 1010.7
20260503022426 70 174 0.0 0.0 0.00 0.00 0.00 57 1010.8
20260503021922 71 166 0.0 0.0 0.00 0.00 0.00 54 1010.6
20260503021418 72 186 0.0 0.9 0.00 0.00 0.00 55 1010.7
20260503020916 73 162 0.0 0.9 0.00 0.00 0.00 51 1010.7
20260503020414 74 136 0.0 0.0 0.00 0.00 0.00 54 1010.6
20260503015909 75 15 0.0 0.9 0.00 0.00 0.00 48 1010.7
20260503015407 75 187 0.9 0.9 0.00 0.00 0.00 50 1010.8
20260503014902 74 84 0.9 0.9 0.00 0.00 0.00 48 1010.6
20260503014400 75 171 0.0 0.9 0.00 0.00 0.00 49 1010.8
20260503013858 75 20 0.9 0.9 0.00 0.00 0.00 48 1010.7
20260503013354 76 42 0.0 0.0 0.00 0.00 0.00 47 1010.6
20260503012851 75 174 0.0 0.0 0.00 0.00 0.00 47 1010.7
20260503012349 76 121 0.0 0.9 0.00 0.00 0.00 47 1010.9
20260503011846 75 122 0.9 0.9 0.00 0.00 0.00 48 1010.7
20260503011343 75 212 0.9 0.9 0.00 0.00 0.00 49 1010.7
20260503010839 75 55 1.7 1.7 0.00 0.00 0.00 48 1010.6
20260503010336 76 28 2.6 5.2 0.00 0.00 0.00 47 1010.8
20260503005833 76 6 0.9 1.7 0.00 0.00 0.00 47 1010.9
20260503005331 76 219 0.9 1.7 0.00 0.00 0.00 47 1010.9
20260503004827 76 40 0.9 0.9 0.00 0.00 0.00 47 1010.8
20260503004325 76 58 0.0 0.9 0.00 0.00 0.00 46 1011.0
20260503003822 76 36 0.9 1.7 0.00 0.00 0.00 47 1011.1
20260503003319 76 100 0.9 0.9 0.00 0.00 0.00 46 1011.1
20260503002816 76 180 0.9 0.9 0.00 0.00 0.00 46 1011.1
20260503002313 76 230 0.9 0.9 0.00 0.00 0.00 45 1011.1
20260503001809 76 0 2.6 2.6 0.00 0.00 0.00 45 1011.0
20260503001305 76 91 1.7 1.7 0.00 0.00 0.00 45 1011.1
20260503000803 76 145 0.9 0.9 0.00 0.00 0.00 47 1011.2
20260503000300 76 67 0.9 0.9 0.00 0.00 0.00 46 1011.2
20260502235757 77 175 0.0 0.9 0.00 0.00 0.00 47 1011.1
20260502235255 76 171 0.0 0.9 0.00 0.00 0.00 47 1011.4
20260502234751 76 335 0.9 0.9 0.00 0.00 0.00 47 1011.1
20260502234248 76 48 0.9 1.7 0.00 0.00 0.00 49 1011.2
20260502233744 75 34 2.6 4.3 0.00 0.00 0.00 49 1011.3
20260502233241 76 8 2.6 2.6 0.00 0.00 0.00 50 1011.3
20260502232737 75 46 0.9 1.7 0.00 0.00 0.00 50 1011.7
20260502232234 75 56 1.7 1.7 0.00 0.00 0.00 49 1011.6
20260502231731 76 196 0.9 1.7 0.00 0.00 0.00 49 1011.9
20260502231228 76 137 0.9 0.9 0.00 0.00 0.00 51 1011.7
20260502230727 75 118 0.0 0.9 0.00 0.00 0.00 51 1012.0
20260502230225 76 62 2.6 2.6 0.00 0.00 0.00 50 1012.0
20260502225720 76 180 0.9 0.9 0.00 0.00 0.00 52 1012.1
20260502225218 76 197 0.9 0.9 0.00 0.00 0.00 51 1011.9
20260502224714 77 21 2.6 5.2 0.00 0.00 0.00 51 1011.9
20260502224211 76 188 0.0 0.9 0.00 0.00 0.00 53 1012.2
20260502223708 76 127 0.9 0.9 0.00 0.00 0.00 51 1012.3
20260502223207 77 49 0.9 1.7 0.00 0.00 0.00 51 1012.4
20260502222704 76 145 0.0 0.0 0.00 0.00 0.00 51 1012.4
20260502222200 75 4 0.0 0.9 0.00 0.00 0.00 52 1012.4
20260502221656 76 36 2.6 2.6 0.00 0.00 0.00 52 1012.5
20260502221153 75 16 0.9 1.7 0.00 0.00 0.00 52 1012.5
20260502220649 76 57 0.9 0.9 0.00 0.00 0.00 52 1012.5
20260502220145 76 212 0.9 0.9 0.00 0.00 0.00 52 1012.6
20260502215643 75 115 0.0 0.0 0.00 0.00 0.00 53 1012.7
20260502215139 75 14 2.6 2.6 0.00 0.00 0.00 54 1012.6
20260502214637 75 164 0.9 0.9 0.00 0.00 0.00 54 1012.6
20260502214134 74 63 0.9 0.9 0.00 0.00 0.00 55 1012.7
20260502213631 75 354 1.7 1.7 0.00 0.00 0.00 54 1012.9
20260502213128 73 208 0.9 0.9 0.00 0.00 0.00 57 1012.9
20260502212627 74 339 0.9 1.7 0.00 0.00 0.00 55 1012.9
20260502212125 73 103 0.9 0.9 0.00 0.00 0.00 55 1013.2
20260502211620 74 112 0.9 0.9 0.00 0.00 0.00 57 1013.1
20260502211112 73 198 1.7 2.6 0.00 0.00 0.00 57 1013.2